User: anonymous   Login
Location: Unspecified
(0.0000°N, 0.0000°E)
Time: 03:41:19
(UTC+01:00)
Language:

Cosmos 540 Rocket - Orbit

View from above orbital plane
View from above orbital plane
View from above satellite
View from above satellite

Ground track
Ground track

The orbit data is extracted from the following two-line orbital elements,

1  6324U 72104B   16039.91478543 +.00000140 +00000-0 +49294-4 0  9996
2  6324 074.0781 301.8885 0009892 214.5135 145.5381 14.43268698263993
Epoch (UTC): 08 February 2016 21:57:17
Eccentricity: 0.0009892
inclination: 74.0781°
perigee height: 740 km
apogee height: 755 km
right ascension of ascending node: 301.8885°
argument of perigee: 214.5135°
revolutions per day: 14.43268698
mean anomaly at epoch: 145.5381°
orbit number at epoch: 26399

The dashed part of the orbit path shows where the satellite is in the earth's shadow,  

DLR